Grand Marais, MN

1:02 PM CST on November 15, 2019 (GMT -0600)
Grand Marais

Weather History for KGNA - September, 2019

Change the Weather History Date:

Friday, September 6, 2019

  Actual Average (KCKC) Record (KCKC)
Temperature  
Mean Temperature 54 °F -  
Max Temperature 61 °F 65 °F 80 °F (2015)
Min Temperature 48 °F 47 °F 33 °F (2010)
Degree Days  
Heating Degree Days 12    
Growing Degree Days 4 (Base 50)    
Moisture  
Dew Point 50 °F    
Average Humidity 90    
Maximum Humidity 97    
Minimum Humidity 78    
Precipitation  
Precipitation 0.01 in - - ()
Sea Level Pressure  
Sea Level Pressure 30.01 in    
Wind  
Wind Speed 4 mph (West)    
Max Wind Speed 13 mph    
Max Gust Speed -    
Averages and records for this station are not official NWS values.
T = Trace of Precipitation, MM = Missing Value Source: NWS Daily Summary

Daily Weather History Graph

Daily Weather History Graph

Search for Another Location

Airport or City:

Astronomy

Sep. 06, 2019 Rise Set
Actual Time 6:26 AM CDT 7:32 PM CDT
Civil Twilight 5:54 AM CDT 8:03 PM CDT
Nautical Twilight 5:16 AM CDT 8:41 PM CDT
Astronomical Twilight 4:35 AM CDT 9:22 PM CDT
Moon 3:08 PM CDT (9/6) 11:59 PM CDT (9/6)
Length of Visible Light 14h 09m
Length of Day
13h 06m
First Quarter, 56% of the Moon is Illuminated
Sep 6
First Quarter
Sep 13
Full
Sep 21
Last Quarter
Sep 28
New
Oct 5
First Quarter

Hourly Weather History & Observations

Time (CDT) Temp. Dew Point Humidity Pressure Visibility Wind Dir Wind Speed Gust Speed Precip Events Conditions
12:56 AM 52.0 °F 51.1 °F 97% 29.94 in - NE 3.5 mph - 0.01 in   Unknown
1:56 AM 57.0 °F 54.0 °F 89% 29.95 in - NNE 4.6 mph - N/A   Unknown
2:56 AM 55.0 °F 52.0 °F 89% 29.96 in - North 6.9 mph - N/A   Unknown
3:56 AM 55.9 °F 52.0 °F 87% 29.97 in - NNE 4.6 mph - N/A   Unknown
4:56 AM 54.0 °F 53.1 °F 97% 29.99 in - Calm Calm - N/A   Unknown
5:56 AM 55.0 °F 52.0 °F 89% 30.01 in - NNW 6.9 mph - N/A   Unknown
6:56 AM 55.0 °F 52.0 °F 89% 30.02 in - NNW 6.9 mph - N/A   Unknown
7:56 AM 55.9 °F 52.0 °F 87% 30.04 in - Calm Calm - N/A   Unknown
8:56 AM 59.0 °F 52.0 °F 78% 30.05 in - Calm Calm - N/A   Unknown
9:56 AM 52.0 °F 48.9 °F 89% 30.05 in - South 6.9 mph - N/A   Unknown
10:56 AM 54.0 °F 50.0 °F 86% 30.05 in - SW 4.6 mph - N/A   Unknown
11:56 AM 52.0 °F 48.9 °F 89% 30.06 in - WSW 5.8 mph - N/A   Unknown
12:56 PM 52.0 °F 48.9 °F 89% 30.06 in - WSW 6.9 mph - N/A   Unknown
1:56 PM 53.1 °F 50.0 °F 89% 30.04 in - WSW 6.9 mph - N/A   Unknown
2:56 PM 51.1 °F 48.9 °F 92% 30.04 in - WSW 12.7 mph - N/A   Unknown
3:56 PM 52.0 °F 48.9 °F 89% 30.02 in - WSW 9.2 mph - N/A   Unknown
4:56 PM 53.1 °F 50.0 °F 89% 30.01 in - WSW 8.1 mph - N/A   Unknown
5:56 PM 51.1 °F 48.9 °F 92% 30.00 in - WSW 6.9 mph - N/A   Unknown
6:56 PM 51.1 °F 48.9 °F 92% 30.00 in - Calm Calm - N/A   Unknown
7:56 PM 51.1 °F 48.9 °F 92% 30.00 in - Calm Calm - N/A   Unknown
8:56 PM 50.0 °F 48.9 °F 96% 29.99 in - Calm Calm - N/A   Unknown
9:56 PM 51.1 °F 48.9 °F 92% 29.99 in - Calm Calm - N/A   Unknown
10:56 PM 48.0 °F 46.9 °F 96% 29.99 in - Calm Calm - N/A   Unknown
11:56 PM 50.0 °F 48.9 °F 96% 29.97 in - Calm Calm - N/A   Unknown